TimeMST,TemperatureF,Dew PointF,Humidity,Sea Level PressureIn,VisibilityMPH,Wind Direction,Wind SpeedMPH,Gust SpeedMPH,PrecipitationIn,Events,Conditions,WindDirDegrees,DateUTC
12:57 AM,46.0,32.0,58,30.06,10.0,Calm,Calm,-,N/A,,Clear,0,2012-09-21 07:57:00
1:57 AM,44.1,30.9,60,30.05,10.0,Calm,Calm,-,N/A,,Clear,0,2012-09-21 08:57:00
2:57 AM,44.1,30.9,60,30.04,10.0,Calm,Calm,-,N/A,,Clear,0,2012-09-21 09:57:00
3:57 AM,42.1,30.0,62,30.06,10.0,Calm,Calm,-,N/A,,Clear,0,2012-09-21 10:57:00
4:57 AM,41.0,30.0,65,30.08,10.0,Calm,Calm,-,N/A,,Clear,0,2012-09-21 11:57:00
6:57 AM,43.0,30.9,62,30.12,10.0,Calm,Calm,-,N/A,,Clear,0,2012-09-21 13:57:00
7:57 AM,57.0,35.1,44,30.09,10.0,Calm,Calm,-,N/A,,Clear,0,2012-09-21 14:57:00
8:57 AM,70.0,35.1,28,30.06,10.0,Calm,Calm,-,N/A,,Clear,0,2012-09-21 15:57:00
9:57 AM,75.0,28.0,18,30.07,10.0,NNE,4.6,-,N/A,,Clear,30,2012-09-21 16:57:00
10:57 AM,73.9,26.1,17,30.08,10.0,Calm,Calm,-,N/A,,Clear,0,2012-09-21 17:57:00
11:57 AM,75.9,27.0,16,30.06,10.0,NNE,4.6,-,N/A,,Partly Cloudy,20,2012-09-21 18:57:00
12:57 PM,77.0,27.0,16,30.04,10.0,Variable,5.8,-,N/A,,Overcast,0,2012-09-21 19:57:00
1:57 PM,75.9,27.0,16,30.03,10.0,WSW,4.6,-,N/A,,Scattered Clouds,250,2012-09-21 20:57:00
2:57 PM,77.0,28.9,17,30.00,10.0,SSW,9.2,-,N/A,,Mostly Cloudy,200,2012-09-21 21:57:00
3:57 PM,77.0,28.0,17,30.01,10.0,SW,8.1,-,N/A,,Mostly Cloudy,230,2012-09-21 22:57:00
4:57 PM,75.9,27.0,16,30.02,10.0,ENE,5.8,-,N/A,,Partly Cloudy,70,2012-09-21 23:57:00
5:57 PM,70.0,30.9,24,30.06,10.0,ESE,3.5,-,N/A,,Partly Cloudy,110,2012-09-22 00:57:00
6:57 PM,64.9,28.9,26,30.08,10.0,Calm,Calm,-,N/A,,Mostly Cloudy,0,2012-09-22 01:57:00
7:57 PM,59.0,28.0,31,30.05,10.0,Calm,Calm,-,N/A,,Clear,0,2012-09-22 02:57:00
8:57 PM,54.0,27.0,35,30.03,10.0,Calm,Calm,-,N/A,,Clear,0,2012-09-22 03:57:00
9:57 PM,50.0,28.0,43,30.03,10.0,Calm,Calm,-,N/A,,Clear,0,2012-09-22 04:57:00
10:57 PM,46.9,30.0,52,30.05,10.0,Calm,Calm,-,N/A,,Clear,0,2012-09-22 05:57:00
11:57 PM,46.0,30.0,54,30.05,10.0,Calm,Calm,-,N/A,,Clear,0,2012-09-22 06:57:00